This is the latest recevied weather packets stored in our database for station/object N4CRH-13. If no packets are shown the sender has not sent any weather packets the latest 1 day(s).
| Time | Temp. | Humidity | Pressure | Rain* | Wind** | Luminosity | Snow |
|---|---|---|---|---|---|---|---|
| 1778043081 | -2.22° C | 99% | 1292.3 hPa | 0 mm | 2.68 m/s, 304° | 0 W/m² | - |
| 1778042779 | -2.22° C | 99% | 1292.5 hPa | 0 mm | 3.13 m/s, 300° | 0 W/m² | - |
| 1778042476 | -2.22° C | 99% | 1292.6 hPa | 0 mm | 3.13 m/s, 276° | 0 W/m² | - |
| 1778042173 | -2.22° C | 99% | 1292.5 hPa | 0 mm | 4.02 m/s, 301° | 0 W/m² | - |
| 1778041872 | -2.22° C | 99% | 1292.4 hPa | 0 mm | 3.13 m/s, 294° | 0 W/m² | - |
| 1778041570 | -2.22° C | 99% | 1292.3 hPa | 0 mm | 3.13 m/s, 298° | 0 W/m² | - |
| 1778041268 | -2.22° C | 99% | 1292.3 hPa | 0 mm | 3.13 m/s, 305° | 0 W/m² | - |
| 1778040967 | -2.22° C | 99% | 1292.6 hPa | 0 mm | 3.13 m/s, 261° | 0 W/m² | - |
| 1778040663 | -2.22° C | 99% | 1292.3 hPa | 0 mm | 2.68 m/s, 304° | 0 W/m² | - |
| 1778040361 | -2.22° C | 99% | 1292.3 hPa | 0 mm | 2.24 m/s, 297° | 0 W/m² | - |
| 1778040057 | -2.22° C | 99% | 1292.4 hPa | 0 mm | 2.24 m/s, 286° | 0 W/m² | - |
| 1778039754 | -2.22° C | 99% | 1292.5 hPa | 0 mm | 2.68 m/s, 297° | 0 W/m² | - |
| 1778039450 | -2.22° C | 99% | 1292.3 hPa | 0 mm | 2.24 m/s, 296° | 0 W/m² | - |
| 1778039148 | -2.22° C | 99% | 1292.4 hPa | 0 mm | 2.24 m/s, 260° | 0 W/m² | - |
| 1778038844 | -2.22° C | 99% | 1292.3 hPa | 0 mm | 2.24 m/s, 293° | 0 W/m² | - |
| 1778038542 | -2.22° C | 99% | 1291.9 hPa | 0 mm | 2.24 m/s, 294° | 0 W/m² | - |
| 1778038239 | -2.22° C | 99% | 1292 hPa | 0 mm | 2.24 m/s, 266° | 0 W/m² | - |
| 1778037936 | -2.22° C | 99% | 1292 hPa | 0 mm | 2.24 m/s, 270° | 0 W/m² | - |
| 1778037633 | -2.22° C | 99% | 1291.9 hPa | 0 mm | 2.24 m/s, 252° | 0 W/m² | - |
| 1778037331 | -2.22° C | 99% | 1291.9 hPa | 0 mm | 2.24 m/s, 286° | 0 W/m² | - |
| 1778037027 | -2.22° C | 99% | 1291.9 hPa | 0 mm | 2.24 m/s, 298° | 0 W/m² | - |
| 1778036725 | -2.22° C | 99% | 1291.7 hPa | 0 mm | 2.68 m/s, 297° | 0 W/m² | - |
| 1778036422 | -2.22° C | 99% | 1291.4 hPa | 0 mm | 2.68 m/s, 304° | 0 W/m² | - |
| 1778036119 | -2.22° C | 99% | 1291.5 hPa | 0 mm | 3.13 m/s, 297° | 0 W/m² | - |
| 1778035815 | -2.22° C | 99% | 1291.3 hPa | 0 mm | 4.02 m/s, 293° | 0 W/m² | - |
* Rain latest hour (hover to see other rain measurements)
** Current wind speed in m/s (hover to see current wind gust speed)